• în România
  • Lista ţărilor
  • Pe 7 zile
  • Temperatura apei
  • Hartă satelitară
  • Meteo pe hartă
  • Widget-uri
  • user-avatar
    Intrare

    Meteo pe oră la Lisburn

    Astăzi, 16 Octombrie, Marţi

    Timp Temperatura Precipitaţii Vânt Presiune Umiditate
    00:00 +7°C° 0 mm 5 m/s 755 mmHg 89%
    01:00 +7°C° 0 mm 6 m/s 754 mmHg 90%
    02:00 +7°C° 0 mm 6 m/s 754 mmHg 91%
    03:00 +8°C° 0 mm 6 m/s 754 mmHg 92%
    04:00 +8°C° 0 mm 6 m/s 753 mmHg 92%
    05:00 +8°C° 0 mm 7 m/s 753 mmHg 92%
    06:00 +7°C° 0 mm 5 m/s 752 mmHg 93%
    07:00 +8°C° 0.1 mm 6 m/s 752 mmHg 90%
    08:00 +8°C° 0.1 mm 7 m/s 752 mmHg 88%
    09:00 +9°C° 0.1 mm 8 m/s 752 mmHg 85%
    10:00 +10°C° 0 mm 7 m/s 752 mmHg 86%
    11:00 +10°C° 0 mm 7 m/s 752 mmHg 87%
    12:00 +11°C° 0 mm 7 m/s 752 mmHg 88%
    13:00 +12°C° 0.1 mm 7 m/s 752 mmHg 87%
    14:00 +13°C° 0.1 mm 6 m/s 752 mmHg 86%
    15:00 +14°C° 0.1 mm 6 m/s 752 mmHg 84%
    16:00 +13°C° 0 mm 5 m/s 753 mmHg 87%
    17:00 +12°C° 0 mm 5 m/s 753 mmHg 89%
    18:00 +11°C° 0 mm 4 m/s 753 mmHg 91%
    19:00 +9°C° 0 mm 5 m/s 753 mmHg 91%
    20:00 +9°C° 0 mm 5 m/s 754 mmHg 92%
    21:00 +8°C° 0 mm 5 m/s 754 mmHg 93%
    22:00 +8°C° 0 mm 5 m/s 755 mmHg 94%
    23:00 +8°C° 0 mm 5 m/s 755 mmHg 95%

    Mâine, 17 Octombrie, Miercuri

    Timp Temperatura Precipitaţii Vânt Presiune Umiditate
    00:00 +8°C° 0 mm 5 m/s 755 mmHg 96%
    01:00 +8°C° 0 mm 4 m/s 755 mmHg 96%
    02:00 +8°C° 0 mm 4 m/s 756 mmHg 96%
    03:00 +8°C° 0 mm 4 m/s 756 mmHg 97%
    04:00 +8°C° 0 mm 4 m/s 756 mmHg 96%
    05:00 +9°C° 0 mm 3 m/s 757 mmHg 96%
    06:00 +9°C° 0 mm 3 m/s 757 mmHg 95%
    07:00 +9°C° 0.1 mm 3 m/s 758 mmHg 93%
    08:00 +8°C° 0.1 mm 4 m/s 758 mmHg 91%
    09:00 +8°C° 0.1 mm 4 m/s 759 mmHg 88%
    10:00 +8°C° 0.1 mm 4 m/s 760 mmHg 84%
    11:00 +10°C° 0.1 mm 4 m/s 760 mmHg 80%
    12:00 +10°C° 0.1 mm 4 m/s 761 mmHg 76%
    13:00 +10°C° 0 mm 4 m/s 761 mmHg 73%
    14:00 +11°C° 0 mm 4 m/s 762 mmHg 71%
    15:00 +11°C° 0 mm 4 m/s 762 mmHg 69%
    16:00 +10°C° 0 mm 4 m/s 763 mmHg 72%
    17:00 +7°C° 0 mm 4 m/s 763 mmHg 76%
    18:00 +7°C° 0 mm 3 m/s 764 mmHg 80%
    19:00 +7°C° 0 mm 3 m/s 765 mmHg 82%
    20:00 +5°C° 0 mm 3 m/s 765 mmHg 83%
    21:00 +5°C° 0 mm 3 m/s 766 mmHg 85%
    22:00 +5°C° 0 mm 3 m/s 766 mmHg 86%
    23:00 +4°C° 0 mm 3 m/s 766 mmHg 87%

    Poimâine, 18 Octombrie, Joi

    Timp Temperatura Precipitaţii Vânt Presiune Umiditate
    00:00 +4°C° 0 mm 3 m/s 766 mmHg 88%
    01:00 +4°C° 0 mm 3 m/s 767 mmHg 88%
    02:00 +5°C° 0 mm 2 m/s 767 mmHg 89%
    03:00 +5°C° 0 mm 2 m/s 767 mmHg 89%
    04:00 +4°C° 0 mm 2 m/s 767 mmHg 89%
    05:00 +4°C° 0 mm 2 m/s 767 mmHg 90%
    06:00 +4°C° 0 mm 2 m/s 767 mmHg 90%
    07:00 +5°C° 0 mm 2 m/s 767 mmHg 87%
    08:00 +7°C° 0 mm 1 m/s 767 mmHg 84%
    09:00 +8°C° 0 mm 1 m/s 767 mmHg 81%
    10:00 +9°C° 0 mm 1 m/s 767 mmHg 77%
    11:00 +10°C° 0 mm 1 m/s 767 mmHg 72%
    12:00 +11°C° 0 mm 1 m/s 767 mmHg 67%
    13:00 +10°C° 0 mm 2 m/s 766 mmHg 68%
    14:00 +10°C° 0 mm 2 m/s 766 mmHg 69%
    15:00 +10°C° 0 mm 3 m/s 766 mmHg 70%
    16:00 +9°C° 0 mm 3 m/s 765 mmHg 73%
    17:00 +8°C° 0 mm 3 m/s 765 mmHg 77%
    18:00 +7°C° 0 mm 3 m/s 765 mmHg 81%
    19:00 +7°C° 0 mm 3 m/s 765 mmHg 83%
    20:00 +6°C° 0 mm 4 m/s 765 mmHg 85%
    21:00 +5°C° 0 mm 4 m/s 765 mmHg 87%
    22:00 +5°C° 0 mm 4 m/s 765 mmHg 86%
    23:00 +6°C° 0 mm 4 m/s 764 mmHg 85%

    19 Octombrie, Vineri

    Timp Temperatura Precipitaţii Vânt Presiune Umiditate
    00:00 +6°C° 0 mm 5 m/s 764 mmHg 85%
    01:00 +6°C° 0 mm 5 m/s 764 mmHg 83%
    02:00 +6°C° 0 mm 5 m/s 763 mmHg 82%
    03:00 +5°C° 0 mm 6 m/s 763 mmHg 80%
    04:00 +5°C° 0 mm 6 m/s 762 mmHg 81%
    05:00 +7°C° 0 mm 6 m/s 762 mmHg 82%
    06:00 +6°C° 0 mm 7 m/s 762 mmHg 83%
    07:00 +6°C° 0 mm 7 m/s 762 mmHg 84%
    08:00 +8°C° 0 mm 7 m/s 762 mmHg 85%
    09:00 +8°C° 0 mm 6 m/s 762 mmHg 86%
    10:00 +9°C° 0 mm 6 m/s 763 mmHg 87%
    11:00 +9°C° 0 mm 6 m/s 763 mmHg 88%
    12:00 +10°C° 0 mm 5 m/s 763 mmHg 89%
    13:00 +10°C° 0 mm 5 m/s 764 mmHg 87%
    14:00 +12°C° 0 mm 4 m/s 764 mmHg 86%
    15:00 +12°C° 0 mm 3 m/s 764 mmHg 85%
    16:00 +11°C° 0 mm 3 m/s 764 mmHg 87%
    17:00 +10°C° 0 mm 2 m/s 765 mmHg 90%
    18:00 +9°C° 0 mm 2 m/s 765 mmHg 92%
    19:00 +10°C° 0 mm 1 m/s 765 mmHg 93%
    20:00 +10°C° 0 mm 1 m/s 766 mmHg 93%
    21:00 +9°C° 0 mm 1 m/s 766 mmHg 94%
    22:00 +10°C° 0 mm 1 m/s 766 mmHg 94%
    23:00 +9°C° 0 mm 2 m/s 766 mmHg 95%

    20 Octombrie, Sâmbătă

    Timp Temperatura Precipitaţii Vânt Presiune Umiditate
    00:00 +9°C° 0 mm 2 m/s 766 mmHg 96%
    01:00 +10°C° 0 mm 3 m/s 766 mmHg 96%
    02:00 +10°C° 0 mm 3 m/s 766 mmHg 96%
    03:00 +10°C° 0 mm 3 m/s 766 mmHg 96%
    04:00 +10°C° 0 mm 3 m/s 766 mmHg 96%
    05:00 +10°C° 0 mm 4 m/s 766 mmHg 96%
    06:00 +10°C° 0 mm 4 m/s 766 mmHg 97%
    07:00 +11°C° 0 mm 4 m/s 766 mmHg 96%
    08:00 +11°C° 0 mm 4 m/s 767 mmHg 95%
    09:00 +11°C° 0 mm 4 m/s 767 mmHg 94%
    10:00 +12°C° 0.1 mm 5 m/s 767 mmHg 94%
    11:00 +12°C° 0.1 mm 5 m/s 767 mmHg 94%
    12:00 +13°C° 0.1 mm 5 m/s 767 mmHg 94%
    13:00 +13°C° 0.1 mm 5 m/s 767 mmHg 94%
    14:00 +14°C° 0.1 mm 5 m/s 767 mmHg 93%
    15:00 +14°C° 0.1 mm 5 m/s 766 mmHg 93%
    16:00 +14°C° 0 mm 4 m/s 766 mmHg 94%
    17:00 +14°C° 0 mm 4 m/s 766 mmHg 95%
    18:00 +14°C° 0 mm 4 m/s 766 mmHg 97%
    19:00 +14°C° 0 mm 4 m/s 766 mmHg 96%
    20:00 +14°C° 0 mm 4 m/s 766 mmHg 96%
    21:00 +14°C° 0 mm 4 m/s 766 mmHg 96%
    22:00 +14°C° 0 mm 4 m/s 766 mmHg 96%
    23:00 +14°C° 0 mm 5 m/s 766 mmHg 96%

    21 Octombrie, Duminică

    Timp Temperatura Precipitaţii Vânt Presiune Umiditate
    00:00 +14°C° 0 mm 5 m/s 765 mmHg 95%
    01:00 +14°C° 0 mm 5 m/s 765 mmHg 95%
    02:00 +14°C° 0 mm 5 m/s 765 mmHg 95%
    03:00 +14°C° 0 mm 6 m/s 764 mmHg 94%
    04:00 +14°C° 0.1 mm 6 m/s 765 mmHg 94%
    05:00 +14°C° 0.1 mm 6 m/s 765 mmHg 93%
    06:00 +13°C° 0.1 mm 6 m/s 765 mmHg 93%
    07:00 +11°C° 0.1 mm 6 m/s 766 mmHg 91%
    08:00 +10°C° 0.1 mm 6 m/s 766 mmHg 89%
    09:00 +9°C° 0.1 mm 6 m/s 767 mmHg 87%
    10:00 +9°C° 0 mm 7 m/s 767 mmHg 81%
    11:00 +10°C° 0 mm 7 m/s 768 mmHg 76%
    12:00 +10°C° 0 mm 7 m/s 769 mmHg 70%
    13:00 +10°C° 0 mm 7 m/s 769 mmHg 69%
    14:00 +10°C° 0 mm 7 m/s 770 mmHg 68%
    15:00 +9°C° 0 mm 7 m/s 770 mmHg 66%
    16:00 +8°C° 0 mm 7 m/s 770 mmHg 68%
    17:00 +8°C° 0 mm 6 m/s 771 mmHg 70%
    18:00 +7°C° 0 mm 5 m/s 771 mmHg 71%
    19:00 +6°C° 0 mm 5 m/s 772 mmHg 73%
    20:00 +6°C° 0 mm 5 m/s 772 mmHg 76%
    21:00 +6°C° 0 mm 5 m/s 773 mmHg 78%
    22:00 +6°C° 0 mm 5 m/s 773 mmHg 79%
    23:00 +6°C° 0 mm 5 m/s 773 mmHg 80%
    Arată mai mult